[[{"header":{"parameterUnit":"m.s-1","parameterCategory":1,"la1":30.2991,"la2":30.254,"lo1":-89.0895,"lo2":-89.0444,"dy":0.0017,"dx":0.0017,"nx":28,"ny":28,"refTime":"2024-04-29T21:00:00:Z","depth":0,"parameterNumber":2,"parameterNumberName":"U-component_of_WINDS"},"data":[0,0,0,0,0,0,0,0,0,0,0,0,0,0,0,0,0,0,0,0,0,0,0,0,0,0,0,0,0,0,0,0,0,0,0,0,0,0,0,0,0,0,0,0,0,0,0,0,0,0,0,0,0,0,0,0,0,0,-1.6659,-1.666,0,-1.676,-1.6761,-1.6762,-1.6803,-1.6803,-1.6803,-1.6802,-1.6911,-1.6914,-1.6917,0,0,0,0,0,0,0,0,0,0,0,0,0,-1.6506,-1.6508,-1.6659,-1.666,-1.6661,-1.676,-1.6761,-1.6763,-1.6803,-1.6803,-1.6803,-1.6802,-1.691,-1.6913,-1.6917,0,0,0,0,0,0,0,0,0,0,0,0,0,-1.6586,-1.6509,-1.6659,-1.6693,-1.6698,-1.676,-1.6761,-1.6763,-1.6803,-1.6803,-1.6803,-1.6802,-1.6908,-1.6913,-1.6918,-1.6954,0,0,-1.6932,-1.6934,0,0,0,0,0,0,0,0,-1.6581,-1.6592,-1.6687,-1.6691,-1.6696,-1.6768,-1.6747,-1.6827,-1.6803,-1.6763,-1.6802,-1.6802,-1.6864,-1.6872,-1.6892,-1.6959,-1.6964,-1.6932,-1.6935,-1.6937,-1.6938,0,0,0,0,0,0,0,-1.6576,-1.6588,-1.6699,-1.6688,-1.6694,-1.6705,-1.6716,-1.6762,-1.6815,-1.6767,-1.677,-1.6781,-1.6866,-1.6888,-1.6895,-1.6965,-1.6932,-1.6936,-1.6939,-1.6941,-1.7067,-1.7068,0,0,0,0,0,0,-1.6564,-1.6583,-1.6696,-1.6702,-1.6636,-1.6708,-1.6721,-1.6746,-1.6814,-1.6824,-1.6781,-1.6783,-1.688,-1.689,-1.6899,-1.6946,-1.6937,-1.6941,-1.6944,-1.7067,-1.7067,-1.7068,0,0,0,0,0,0,-1.656,-1.6574,-1.6692,-1.6643,-1.6659,-1.6711,-1.6739,-1.6748,-1.6769,-1.6825,-1.6835,-1.6793,-1.688,-1.6892,-1.694,-1.695,-1.6944,-1.6948,-1.7066,-1.7067,-1.7068,-1.704,0,0,0,0,0,0,-1.6556,-1.6572,-1.6585,-1.6643,-1.6662,-1.6729,-1.674,-1.675,-1.6776,-1.6779,-1.6839,-1.6848,-1.6881,-1.6932,-1.6944,-1.6957,-1.6951,-1.7065,-1.7066,-1.7067,-1.704,-1.704,-1.7039,0,0,0,0,0,-1.655,-1.6575,-1.6586,-1.6599,-1.6679,-1.673,-1.674,-1.6775,-1.6777,-1.6792,-1.6828,-1.6847,-1.6947,-1.6937,-1.6951,-1.6964,-1.7065,-1.7066,-1.7067,-1.704,-1.704,-1.7039,0,0,0,0,0,0,-1.6518,-1.6583,-1.6596,-1.6639,-1.6678,-1.6736,-1.6756,-1.6774,-1.6815,-1.6816,-1.6859,-1.6872,-1.6916,-1.6945,-1.6932,-1.7003,-1.7008,-1.7012,-1.6982,-1.6982,-1.6982,-1.6974,-1.6955,0,0,0,0,0,-1.6516,-1.655,-1.6606,-1.6639,-1.6657,-1.6703,-1.6726,-1.675,-1.6793,-1.681,-1.685,-1.6892,-1.6933,-1.696,-1.7001,-1.7045,-1.7059,-1.7061,-1.706,-1.706,-1.7063,-1.7088,-1.709,-1.7072,-1.7072,-1.7072,0,0,-1.6512,-1.6552,-1.6571,-1.6633,-1.6666,-1.6702,-1.6717,-1.6754,-1.6781,-1.6817,-1.6863,-1.6893,-1.6944,-1.6989,-1.7011,-1.7015,-1.7071,-1.7061,-1.706,-1.7064,-1.709,-1.7092,-1.7093,-1.7073,-1.7073,-1.7072,0,0,-1.6524,-1.6557,-1.6588,-1.662,-1.6669,-1.6699,-1.6707,-1.6762,-1.6783,-1.683,-1.6857,-1.6891,-1.6961,-1.6995,-1.7022,-1.7046,-1.7065,-1.7058,-1.7056,-1.7081,-1.7082,-1.7083,-1.7092,-1.7095,-1.7061,-1.7061,-1.7061,0,-1.6513,-1.6567,-1.6602,-1.6637,-1.6664,-1.6696,-1.6728,-1.6758,-1.6819,-1.6838,-1.684,-1.6928,-1.6965,-1.7019,-1.7024,-1.7045,-1.7056,-1.7052,-1.7079,-1.7081,-1.7082,-1.7091,-1.7094,-1.706,-1.706,-1.706,-1.706,0,-1.6551,-1.6588,-1.6607,-1.6663,-1.6692,-1.6726,-1.6768,-1.6793,-1.6814,-1.6844,-1.6892,-1.6936,-1.6987,-1.7001,-1.7023,-1.7059,-1.7059,-1.707,-1.7075,-1.7082,-1.7091,-1.7095,-1.7058,-1.7059,-1.7059,-1.7059,0,0,-1.6546,-1.6619,-1.6626,-1.6652,-1.6708,-1.6738,-1.6774,-1.6821,-1.6842,-1.6883,-1.6915,-1.6973,-1.6983,-1.7013,-1.7039,-1.7061,-1.7077,-1.7069,-1.7071,-1.7069,-1.7119,-1.711,-1.7113,-1.709,-1.709,-1.7091,-1.7115,0,-1.6564,-1.6627,-1.666,-1.671,-1.6744,-1.6775,-1.6806,-1.6845,-1.6874,-1.6909,-1.6942,-1.6982,-1.6992,-1.7011,-1.7033,-1.707,-1.7087,-1.7069,-1.712,-1.7122,-1.7106,-1.7118,-1.7109,-1.7129,-1.7118,-1.7119,-1.7119,0,-1.6595,-1.6633,-1.6685,-1.6737,-1.6753,-1.678,-1.6826,-1.6859,-1.6904,-1.6924,-1.6957,-1.6982,-1.7022,-1.7024,-1.7081,-1.7067,-1.7091,-1.7112,-1.7114,-1.712,-1.7121,-1.7125,-1.7137,-1.7139,-1.7125,-1.7125,-1.7124,0,-1.6585,-1.665,-1.669,-1.6711,-1.6772,-1.6791,-1.6818,-1.6862,-1.6888,-1.6929,-1.6947,-1.6993,-1.7018,-1.7054,-1.7091,-1.7089,-1.7144,-1.7149,-1.7162,-1.7161,-1.7173,-1.7171,-1.7188,-1.7188,-1.7188,-1.7188,-1.7187,0,-1.6602,-1.6633,-1.6686,-1.671,-1.6746,-1.6784,-1.6819,-1.6849,-1.6888,-1.692,-1.695,-1.6979,-1.7027,-1.7063,-1.7093,-1.7135,-1.7146,-1.7164,-1.7172,-1.7161,-1.7159,-1.7177,-1.7177,-1.7188,-1.7188,-1.7188,-1.7188,0,-1.6597,-1.6633,-1.6679,-1.6733,-1.6747,-1.6771,-1.6818,-1.6844,-1.6874,-1.6914,-1.6926,-1.6975,-1.7018,-1.7059,-1.7118,-1.7138,-1.7181,-1.7191,-1.7165,-1.7169,-1.718,-1.7178,-1.7209,-1.7216,-1.721,-1.721,-1.721,0,-1.6605,-1.663,-1.6686,-1.6708,-1.6734,-1.677,-1.6796,-1.6835,-1.6862,-1.6915,-1.6934,-1.698,-1.7018,-1.7087,-1.7129,-1.7174,-1.7185,-1.7193,-1.7192,-1.7181,-1.7185,-1.7183,-1.7186,-1.7192,-1.7192,-1.7192,-1.7192,0,-1.6616,-1.6633,-1.6669,-1.6712,-1.6742,-1.6778,-1.6815,-1.6832,-1.6878,-1.6907,-1.6951,-1.698,-1.704,-1.7085,-1.7135,-1.7165,-1.7186,-1.7192,-1.7197,-1.7187,-1.7171,-1.718,-1.7163,-1.7191,-1.7191,-1.7191,-1.7191,-1.7191,-1.6619,-1.6641,-1.6684,-1.6723,-1.6755,-1.6788,-1.6815,-1.6848,-1.6885,-1.6934,-1.6956,-1.7,-1.7046,-1.7115,-1.7144,-1.7181,-1.7186,-1.7194,-1.7196,-1.7197,-1.7195,-1.7165,-1.719,-1.719,-1.719,-1.719,-1.7191,0,-1.6631,-1.666,-1.6695,-1.6745,-1.6776,-1.6792,-1.6834,-1.6859,-1.6897,-1.6937,-1.6973,-1.7024,-1.7068,-1.7113,-1.716,-1.7181,-1.7192,-1.7192,-1.7191,-1.7197,-1.7188,-1.7178,-1.7182,-1.7182,-1.7182,-1.7182,-1.7182,-1.7182,-1.6641,-1.668,-1.6702,-1.6757,-1.6787,-1.6829,-1.6851,-1.6883,-1.6915,-1.6969,-1.7005,-1.7033,-1.7075,-1.7125,-1.7167,-1.7179,-1.7195,-1.7192,-1.7207,-1.7197,-1.7198,-1.7198,-1.7189,-1.7195,-1.7195,-1.7213,-1.7213,-1.7213]},{"header":{"parameterUnit":"m.s-1","parameterCategory":1,"la1":30.2991,"la2":30.254,"lo1":-89.0895,"lo2":-89.0444,"dy":0.0017,"dx":0.0017,"nx":28,"ny":28,"refTime":"2024-04-29T21:00:00:Z","depth":0,"parameterNumber":3,"parameterNumberName":"V-component_of_WINDS"},"data":[0,0,0,0,0,0,0,0,0,0,0,0,0,0,0,0,0,0,0,0,0,0,0,0,0,0,0,0,0,0,0,0,0,0,0,0,0,0,0,0,0,0,0,0,0,0,0,0,0,0,0,0,0,0,0,0,0,0,4.5965,4.5967,0,4.6119,4.612,4.6122,4.6125,4.6123,4.6121,4.6119,4.6267,4.6273,4.6279,0,0,0,0,0,0,0,0,0,0,0,0,0,4.5663,4.5669,4.5965,4.5967,4.5969,4.6118,4.612,4.6122,4.6125,4.6123,4.612,4.6118,4.6266,4.6272,4.6279,0,0,0,0,0,0,0,0,0,0,0,0,0,4.5803,4.5671,4.5964,4.5988,4.5992,4.6118,4.6121,4.6123,4.6125,4.6123,4.612,4.6117,4.6263,4.6272,4.628,4.639,0,0,4.6306,4.631,0,0,0,0,0,0,0,0,4.5795,4.5814,4.5983,4.5987,4.5991,4.61,4.6069,4.6212,4.6126,4.6074,4.6119,4.6116,4.6213,4.6226,4.6261,4.6397,4.6403,4.6307,4.6312,4.6316,4.6318,0,0,0,0,0,0,0,4.5785,4.5807,4.6025,4.5985,4.599,4.5988,4.6004,4.6096,4.6158,4.6079,4.6079,4.6098,4.6215,4.6252,4.6264,4.6406,4.6307,4.6314,4.632,4.6323,4.6638,4.6641,0,0,0,0,0,0,4.5772,4.5799,4.602,4.603,4.5884,4.5995,4.6014,4.6068,4.6157,4.6168,4.61,4.6097,4.6239,4.6254,4.6269,4.6403,4.6316,4.6324,4.6329,4.6635,4.6639,4.6642,0,0,0,0,0,0,4.5766,4.5792,4.6014,4.5915,4.5943,4.6004,4.6064,4.6072,4.611,4.6173,4.6183,4.6128,4.6237,4.6257,4.636,4.6408,4.6328,4.6336,4.6631,4.6636,4.664,4.6672,0,0,0,0,0,0,4.5757,4.579,4.5835,4.5916,4.5948,4.6106,4.6067,4.6077,4.6126,4.6123,4.6202,4.6212,4.6237,4.6348,4.6369,4.6419,4.6342,4.6627,4.6633,4.6639,4.6667,4.6678,4.6687,0,0,0,0,0,4.5746,4.5836,4.5837,4.5864,4.6006,4.6109,4.6127,4.6156,4.6129,4.6173,4.6214,4.6209,4.64,4.6358,4.6382,4.6435,4.6624,4.6631,4.6638,4.6663,4.6676,4.6686,0,0,0,0,0,0,4.5755,4.5847,4.5849,4.5968,4.6031,4.6109,4.6165,4.6169,4.6238,4.6233,4.6264,4.6281,4.6384,4.642,4.6372,4.6545,4.6508,4.6521,4.6518,4.6531,4.6541,4.6529,4.6349,0,0,0,0,0,4.5771,4.585,4.5925,4.6022,4.6054,4.6104,4.615,4.6167,4.6232,4.6258,4.6306,4.6366,4.644,4.6487,4.6559,4.6672,4.6688,4.672,4.673,4.6738,4.6748,4.6809,4.6824,4.6666,4.6666,4.6666,0,0,4.5805,4.5864,4.5912,4.6025,4.6076,4.6154,4.6126,4.621,4.6267,4.6269,4.6371,4.6408,4.6477,4.6586,4.6636,4.6619,4.6795,4.6747,4.6753,4.6759,4.6818,4.6833,4.6846,4.6671,4.667,4.6669,0,0,4.5905,4.5959,4.6047,4.6098,4.6177,4.6209,4.623,4.6308,4.6334,4.6436,4.644,4.6506,4.6632,4.6681,4.6723,4.6841,4.6839,4.6863,4.6913,4.6973,4.6985,4.6996,4.7037,4.7052,4.6873,4.6873,4.6873,0,4.5936,4.6057,4.609,4.6174,4.6223,4.6232,4.6318,4.6366,4.6461,4.6493,4.6474,4.6632,4.6679,4.6799,4.6828,4.6862,4.6884,4.6854,4.6981,4.6993,4.7003,4.7043,4.7058,4.6875,4.6875,4.6875,4.6875,0,4.609,4.6173,4.6233,4.6329,4.6384,4.6469,4.6512,4.6563,4.6576,4.6609,4.6712,4.6769,4.6852,4.6881,4.6893,4.7002,4.6989,4.6975,4.6938,4.702,4.7058,4.7073,4.6879,4.6878,4.6877,4.6877,0,0,4.62,4.6314,4.6335,4.6379,4.6465,4.6528,4.6612,4.6696,4.6738,4.6803,4.6873,4.6979,4.6967,4.7013,4.7031,4.7083,4.7171,4.7062,4.7064,4.7079,4.7293,4.7303,4.732,4.7171,4.7174,4.7176,4.7287,0,4.6309,4.6463,4.6494,4.6625,4.6701,4.671,4.6783,4.6842,4.6875,4.6942,4.6977,4.7052,4.703,4.7059,4.7111,4.715,4.7214,4.7142,4.7233,4.7235,4.7215,4.734,4.7351,4.7454,4.7302,4.7305,4.7306,0,4.6458,4.653,4.6669,4.6746,4.6778,4.6844,4.6922,4.6987,4.7052,4.7073,4.7126,4.7137,4.7221,4.718,4.7295,4.7245,4.7284,4.7308,4.7313,4.7322,4.7276,4.7351,4.7487,4.7502,4.733,4.7328,4.7326,0,4.6523,4.6655,4.6755,4.6792,4.6883,4.6928,4.6968,4.7032,4.7079,4.7147,4.7177,4.7253,4.7293,4.735,4.738,4.7348,4.7492,4.7454,4.7509,4.7508,4.7538,4.7536,4.7681,4.7564,4.7564,4.7564,4.7564,0,4.6642,4.6726,4.6786,4.6848,4.6941,4.6976,4.7067,4.7105,4.7161,4.7228,4.7239,4.7301,4.7337,4.7403,4.7427,4.7517,4.7536,4.7553,4.7558,4.7552,4.7549,4.7577,4.757,4.7568,4.7567,4.7566,4.7566,0,4.673,4.6774,4.6884,4.6962,4.6984,4.705,4.7115,4.7173,4.7206,4.7291,4.7312,4.7364,4.7442,4.7478,4.7574,4.7589,4.7692,4.7693,4.7671,4.7673,4.7725,4.7719,4.7893,4.7916,4.7784,4.7786,4.7787,0,4.6803,4.6869,4.6955,4.7002,4.7044,4.7119,4.7169,4.7204,4.7254,4.7334,4.7382,4.7461,4.7527,4.765,4.7694,4.7767,4.7769,4.7825,4.778,4.7771,4.7769,4.7764,4.777,4.7832,4.7834,4.7835,4.7836,0,4.6927,4.6945,4.7019,4.7099,4.7159,4.7223,4.7285,4.7322,4.7366,4.7422,4.7504,4.7555,4.7654,4.7731,4.7807,4.7844,4.7846,4.7849,4.7866,4.786,4.7844,4.7853,4.7692,4.7845,4.7844,4.7843,4.7843,4.7843,4.701,4.7068,4.7138,4.7218,4.727,4.7328,4.7387,4.7428,4.7498,4.7584,4.7599,4.7685,4.7747,4.785,4.789,4.7956,4.7942,4.7966,4.7972,4.7977,4.798,4.7835,4.7969,4.7969,4.7969,4.7969,4.7969,0,4.7133,4.7179,4.7253,4.7342,4.7404,4.7404,4.7473,4.7524,4.7601,4.7661,4.7725,4.7818,4.7893,4.7943,4.8019,4.8062,4.8065,4.808,4.8077,4.8085,4.7988,4.7966,4.8077,4.8077,4.8077,4.8077,4.8076,4.8076,4.7205,4.7304,4.7331,4.7454,4.7498,4.7585,4.7625,4.7677,4.7725,4.7829,4.7893,4.7926,4.7981,4.806,4.8128,4.8141,4.8167,4.8183,4.8195,4.8103,4.8092,4.8081,4.8061,4.8189,4.8189,4.8287,4.8287,4.8288]}]]